Blue Ridge Airport

Jump to: basic info | weather | frequencies | runways | comments

Related pages: nearby airports | nearby navaids | notams | map

Basic information (top)

Codes: KMTV MTV
Location: lon 36.630699, lat -80.018303, elev 941 ft / 287 m msl
Status: small_airport

Weather (top)

Current conditions (rec'd 2014/08/20 16:15Z):

KMTV 201615Z AUTO 22006KT 10SM SCT024 29/22 A3004 RMK AO2 T02890220

Airport forecast for Smith Reynolds Airport 31nm (58km) SSW (rec'd 2014/08/20 12:27Z):

TAF KINT 201121Z 2012/2112 VRB03KT 5SM BR SCT005 BKN015 
      TEMPO 2012/2013 2SM BR BKN002 
     FM201400 VRB03KT P6SM SCT035 BKN150 
     FM201900 VRB05KT P6SM VCSH SCT050 BKN150 
     FM210000 VRB05KT P6SM SCT250 
     FM210900 00000KT 4SM BR BKN250

Frequencies (top)

Verify before use: may be inaccurate or out of date.

A/D: 124.35 MHz (GREENSBORO APP/DEP)
AWOS: 118.45 MHz (AWOS 3)
CLD: 124.85 MHz (CLNC DEL)
UNIC: 122.7 MHz (CTAF/UNICOM)

Runways (top)

12/30: 5,002 x 100 ft (1,525 x 30 m) — paved — lighted

Latest comments (top)

Runway Cafe: Great little place to eat right next to ... [read]

More... (top)

See also NOTAMs and nearby airports and navaids, or visit the Blue Ridge Airport page at the main OurAirports website..